148P/Anderson-LINEAR (2008)

Japanese version
Home page
Updated on May 5, 2012

---------------------------------------------------------------------

* Profile

* Orbital Elements

Epoch 2008 May 14.0 TT = JDT 2454600.5
T 2008 May 22.76596 TT                                  MPC
q   1.7027668            (2000.0)            P               Q
n   0.13934365     Peri.    6.68362     -0.11275036     -0.99155001
a   3.6847775      Node    89.80409     +0.90863569     -0.12901919
e   0.5378916      Incl.    3.67839     +0.40208026     +0.01351428
P   7.07
From 108 observations 1963 Nov. 22-2008 Mar. 23, mean residual 0".7.
     Nongravitational parameters A1 = +0.33, A2 = -0.0028.

* Magnitudes Graph

        m1 = 14.0 + 5 log d + 10.0 log r

---------------------------------------------------------------------

The orbital elements are published on M.P.E.C. 2012-J16.
The magnitudes graphs are made with Comet for Windows.

---------------------------------------------------------------------

Copyright(C) Seiichi Yoshida (comet@aerith.net). All rights reserved.